Weather Roundup
Issued by NWS

Home | Current Version | Previous Version | Graphics & Text | Print | Product List | Glossary Off
Versions: 1 2 3 4 5 6 7 8 9 10 11 12 13 14 15 16 17 18 19 20 21 22 23 24 25 26 27 28 29 30 31 32 33 34 35 36 37 38 39 40 41 42 43 44 45 46 47 48 49 50

000
NZUS93 KARX 221310
HRRWXR

CURRENT HOURLY OBSERVATIONS ACROSS
MUCH OF THE UPPER MISSISSIPPI VALLEY
NATIONAL WEATHER SERVICE LA CROSSE WI
700 AM CST THU FEB 22 2018


...SOUTHEAST MINNESOTA...


CITY           SKY/WX    TMP DP  RH WIND       PRES   REMARKS
ROCHESTER      CLOUDY    18  14  84 E9        30.54F WCI   7
ROCHESTER/MAYO CLOUDY    18  13  79 CALM      30.55F
WINONA         FAIR      18  12  79 CALM      30.61F
AUSTIN         MOCLDY    19  16  86 E7        30.52S WCI  10
ALBERT LEA     CLOUDY    19  16  86 E6        30.51F WCI  11
DODGE CENTER   CLOUDY    16  10  79 E7        30.53S WCI   6
PRESTON        CLOUDY    18  15  88 NE5       30.55S WCI  11
OWATONNA       CLOUDY    16  10  79 E6        30.53F WCI   7
FARIBAULT      CLOUDY    16   9  73 CALM      30.56F
$$

...ELSEWHERE IN MINNESOTA...


CITY           SKY/WX    TMP DP  RH WIND       PRES   REMARKS
MINNEAPOLIS    CLOUDY    13   7  77 E6        30.59F WCI   4
INTNL FALLS    FAIR     -13 -16  86 SE6       30.52S WCI -27
DULUTH         FAIR      -3  -8  79 CALM      30.56S
RED WING       MOCLDY    12   1  62 E6        30.60F WCI   3
REDWOOD FALLS  FAIR       5   1  83 E6        30.53F WCI  -6
MANKATO        FLURRIES  16  10  77 E8        30.54F WCI   5
WORTHINGTON    LGT SNOW  14  10  85 E7        30.45F FOG     WCI   4
FAIRMONT       LGT SNOW  16  12  84 NE5       30.51F FOG     WCI   9
$$

...SOUTHWEST WISCONSIN...


CITY           SKY/WX    TMP DP  RH WIND       PRES   REMARKS
LA CROSSE      CLOUDY    22  14  71 NE5       30.60F WCI  16
PRAIRIE DU CHI CLOUDY    25  14  64 SE6       30.58S WCI  18
BOSCOBEL       CLOUDY    25  15  66 E6        30.59F WCI  18
LONE ROCK      CLOUDY    24  15  68 E7        30.61F WCI  16
PLATTEVILLE    FAIR      24  17  75 NE10      30.55F WCI  14
FORT MC COY    FAIR      19  14  80 E6        30.61F WCI  11
CAMP DOUGLAS   CLOUDY    19  14  79 CALM      30.62S
MAUSTON-NEW LI CLOUDY    21  13  72 CALM      30.62R
VIROQUA        CLOUDY    21  18  88 E8        30.56R WCI  11
WIS DELLS      CLOUDY    20  13  73 NE6       30.60F WCI  13
$$

...ELSEWHERE IN WISCONSIN...


CITY           SKY/WX    TMP DP  RH WIND       PRES   REMARKS
MILWAUKEE      MOCLDY    31  21  66 NE10      30.58F WCI  22
MADISON        MOCLDY    22  14  71 NE8       30.60S WCI  12
GREEN BAY      CLOUDY    20  11  68 N8        30.66S WCI  10
EAU CLAIRE     MOCLDY     6   3  87 NE3       30.63F
BLACK RVR FLS  FAIR      15  10  82 CALM      30.62S
MEDFORD        CLOUDY     9   4  78 E6        30.59S WCI  -1
WAUSAU         MOCLDY     8   4  83 CALM      30.61S
WIS RAPIDS     CLOUDY    16   8  71 NE6       30.63F WCI   7
MARSHFIELD     CLOUDY    12   4  70 E8        30.59F WCI   0
RICE LAKE      FAIR      -1  -4  85 CALM      30.63F
$$

...NORTHEAST IOWA...


CITY           SKY/WX    TMP DP  RH WIND       PRES   REMARKS
WATERLOO       CLOUDY    24  16  71 SE9       30.54R WCI  14
DUBUQUE        CLOUDY    24  14  65 NE15      30.53F WCI  11
DECORAH        CLOUDY    21  18  86 NE6       30.54R WCI  14
MASON CITY     CLOUDY    21  18  88 E9        30.52F WCI  11
CHARLES CITY   CLOUDY    23  23 100 NE9       30.53S WCI  13
OELWEIN        CLOUDY    23  19  86 E12G17    30.54R WCI  12
$$

...ELSEWHERE IN IOWA...


CITY           SKY/WX    TMP DP  RH WIND       PRES   REMARKS
DES MOINES     FLURRIES  25  17  72 NE12      30.47F WCI  14
IOWA CITY      CLOUDY    29  16  58 NE8       30.52S WCI  21
FORT DODGE     CLOUDY    21  19  92 E5        30.48F WCI  15
MARSHALLTOWN   CLOUDY    24  17  74 NE10      30.50S WCI  14
CEDAR RAPIDS   CLOUDY    27  14  58 E13       30.49S WCI  16
$$

...NORTHERN ILLINOIS...


CITY           SKY/WX    TMP DP  RH WIND       PRES   REMARKS
CHICAGO-OHARE  CLOUDY    33  27  78 NE14      30.54S WCI  23
CHICAGO-MIDWAY CLOUDY    34  28  79 NE14      30.54R WCI  25
MOLINE         CLOUDY    29  21  72 NE10      30.52S WCI  20
ROCKFORD       CLOUDY    29  22  75 NE9       30.57R WCI  20
PEORIA         CLOUDY    31  28  89 NE14      30.46F WCI  21
$$

NOTE: "FAIR" INDICATES FEW OR NO CLOUDS BELOW 12,000 FEET WITH NO
SIGNIFICANT WEATHER AND/OR OBSTRUCTIONS TO VISIBILITY. WIND
SPEEDS ARE IN MILES-PER-HOUR.




USA.gov is the U.S. government's official web portal to all federal, state and local government web resources and services.